Ardmore, OK

3:11 PM CDT on May 23, 2017 (GMT -0500)
Ardmore Municipal

Weather History for KADM - March, 2014

Change the Weather History Date:

Sunday, March 9, 2014

  Actual Average Record
Temperature  
Mean Temperature 49 °F -  
Max Temperature 62 °F 58 °F 80 °F (2009)
Min Temperature 36 °F 40 °F 24 °F (1998)
Degree Days  
Heating Degree Days 16    
Moisture  
Dew Point 35 °F    
Average Humidity 77    
Maximum Humidity 96    
Minimum Humidity 45    
Precipitation  
Precipitation 0.00 in - - ()
Sea Level Pressure  
Sea Level Pressure 30.28 in    
Wind  
Wind Speed 7 mph (North)    
Max Wind Speed 10 mph    
Max Gust Speed -    
Visibility 10 miles    
Events      
Averages and records for this station are not official NWS values.
T = Trace of Precipitation, MM = Missing Value Source: NWS Daily Summary

Daily Weather History Graph

Daily Weather History Graph

Search for Another Location

Airport or City:

Trip Planner

Search our weather history database for the weather conditions in past years. The results will help you decide how hot, cold, wet, or windy it might be!

Date:

Astronomy

Mar. 09, 2014 Rise Set
Actual Time 7:46 AM CDT 7:31 PM CDT
Civil Twilight 7:21 AM CDT 7:56 PM CDT
Nautical Twilight 6:52 AM CDT 8:25 PM CDT
Astronomical Twilight 6:23 AM CDT 8:54 PM CDT
Moon 1:35 PM CDT (3/9) 3:02 AM CDT (3/9)
Length of Visible Light 12h 34m
Length of Day
11h 44m
First Quarter, 61% of the Moon is Illuminated
Mar 9
First Quarter
Mar 16
Full
Mar 23
Last Quarter
Mar 30
New
Apr 7
First Quarter

Hourly Weather History & Observations

Time (CDT) Temp. Windchill Dew Point Humidity Pressure Visibility Wind Dir Wind Speed Gust Speed Precip Events Conditions
12:15 AM 37.2 °F 31.2 °F 33.3 °F 86% 30.31 in 7.0 mi North 8.1 mph - N/A   Overcast
12:35 AM 37.4 °F 31.4 °F 33.3 °F 85% 30.32 in 10.0 mi North 8.1 mph - N/A   Overcast
12:55 AM 37.8 °F 32.5 °F 33.1 °F 83% 30.32 in 10.0 mi North 6.9 mph - N/A   Overcast
1:15 AM 37.9 °F 32.1 °F 33.1 °F 83% 30.32 in 10.0 mi North 8.1 mph - N/A   Overcast
1:35 AM 38.3 °F 33.9 °F 33.3 °F 82% 30.31 in 10.0 mi North 5.8 mph - N/A   Overcast
1:55 AM 38.3 °F 32.5 °F 33.3 °F 82% 30.31 in 10.0 mi North 8.1 mph - N/A   Overcast
3:15 AM 38.5 °F 32.7 °F 33.1 °F 81% 30.31 in 10.0 mi North 8.1 mph - N/A   Overcast
3:35 AM 38.8 °F 33.8 °F 33.1 °F 80% 30.30 in 10.0 mi North 6.9 mph - N/A   Mostly Cloudy
3:55 AM 39.2 °F 33.6 °F 33.1 °F 79% 30.30 in 10.0 mi North 8.1 mph - N/A   Overcast
4:15 AM 39.2 °F 35.9 °F 33.1 °F 79% 30.30 in 10.0 mi North 4.6 mph - N/A   Overcast
4:35 AM 39.2 °F 33.6 °F 33.3 °F 79% 30.29 in 10.0 mi North 8.1 mph - N/A   Overcast
4:55 AM 39.2 °F 32.5 °F 33.1 °F 79% 30.29 in 10.0 mi North 10.4 mph - N/A   Overcast
5:15 AM 39.2 °F 33.6 °F 32.9 °F 78% 30.30 in 10.0 mi North 8.1 mph - N/A   Overcast
5:35 AM 39.4 °F 34.5 °F 32.9 °F 78% 30.30 in 10.0 mi North 6.9 mph - N/A   Overcast
5:55 AM 39.6 °F 34.7 °F 33.1 °F 78% 30.31 in 10.0 mi North 6.9 mph - N/A   Overcast
6:15 AM 39.7 °F 34.9 °F 32.9 °F 77% 30.31 in 10.0 mi North 6.9 mph - N/A   Overcast
6:35 AM 39.9 °F 35.8 °F 33.1 °F 77% 30.32 in 10.0 mi North 5.8 mph - N/A   Overcast
6:55 AM 39.2 °F 35.0 °F 32.0 °F 75% 30.32 in 10.0 mi North 5.8 mph - N/A   Overcast
8:55 AM 41.0 °F 39.0 °F 33.8 °F 76% 30.33 in 10.0 mi NNW 3.5 mph - N/A   Mostly Cloudy
9:55 AM - - - N/A% 30.33 in 10.0 mi NNE 6.9 mph - N/A   Clear
10:55 AM 48.2 °F - 35.6 °F 62% 30.35 in 10.0 mi NNW 9.2 mph - N/A   Clear
11:55 AM 50.0 °F - 37.4 °F 62% 30.34 in 10.0 mi Calm Calm - N/A   Clear
12:55 PM 53.6 °F - 39.2 °F 58% 30.32 in 10.0 mi NE 4.6 mph - N/A   Clear
1:55 PM 57.2 °F - 41.0 °F 55% 30.27 in 10.0 mi West 3.5 mph - N/A   Clear
2:55 PM 59.0 °F - 42.8 °F 55% 30.23 in 10.0 mi ESE 3.5 mph - N/A   Clear
3:55 PM 62.6 °F - 41.0 °F 45% 30.21 in 10.0 mi South 3.5 mph - N/A   Clear
11:35 PM 40.5 °F - 38.3 °F 92% 30.17 in 10.0 mi Calm Calm - N/A   Clear
11:55 PM 39.9 °F 37.8 °F 37.4 °F 91% 30.17 in 10.0 mi North 3.5 mph - N/A   Clear
12:15 AM 37.2 °F - 35.8 °F 95% 30.16 in 10.0 mi Calm Calm - N/A   Clear
12:35 AM 36.9 °F 34.3 °F 35.6 °F 95% 30.16 in 10.0 mi NE 3.5 mph - N/A   Clear
12:55 AM 37.6 °F - 36.5 °F 96% 30.15 in 10.0 mi Calm Calm - N/A   Clear